Time,TemperatureF,DewpointF,PressureIn,WindDirection,WindDirectionDegrees,WindSpeedMPH,WindSpeedGustMPH,Humidity,HourlyPrecipIn,Conditions,Clouds,dailyrainin,SolarRadiationWatts/m^2,SoftwareType,DateUTC
2013-01-22 00:04:00,9.0,4.0,-100.00,SE,129,1.0,3.0,80,0.00,,,0.00,0.000000,,2013-01-22 05:04:00,
2013-01-22 00:10:00,6.0,1.0,-100.00,ESE,103,2.0,3.0,81,0.00,,,0.00,0.000000,,2013-01-22 05:10:00,
2013-01-22 00:33:00,6.0,1.0,-100.00,ESE,103,2.0,3.0,81,0.00,,,0.00,0.000000,,2013-01-22 05:33:00,
2013-01-22 00:43:00,6.0,1.0,-100.00,ESE,103,2.0,3.0,81,0.00,,,0.00,0.000000,,2013-01-22 05:43:00,
2013-01-22 00:53:00,6.0,1.0,-100.00,ESE,103,2.0,3.0,81,0.00,,,0.00,0.000000,,2013-01-22 05:53:00,
2013-01-22 01:02:00,6.0,1.0,-100.00,ESE,103,2.0,3.0,81,0.00,,,0.00,0.000000,,2013-01-22 06:02:00,
2013-01-22 01:10:00,2.0,-3.0,-100.00,ESE,104,2.0,3.0,79,0.00,,,0.00,0.000000,,2013-01-22 06:10:00,
2013-01-22 01:33:00,2.0,-3.0,-100.00,ESE,104,2.0,3.0,79,0.00,,,0.00,0.000000,,2013-01-22 06:33:00,
2013-01-22 01:43:00,2.0,-3.0,-100.00,ESE,104,2.0,3.0,79,0.00,,,0.00,0.000000,,2013-01-22 06:43:00,
2013-01-22 01:53:00,2.0,-3.0,-100.00,ESE,104,2.0,3.0,79,0.00,,,0.00,0.000000,,2013-01-22 06:53:00,
2013-01-22 02:02:00,2.0,-3.0,-100.00,ESE,104,2.0,3.0,79,0.00,,,0.00,0.000000,,2013-01-22 07:02:00,
2013-01-22 02:10:00,4.0,-1.0,-100.00,East,94,1.0,2.0,79,0.00,,,0.00,0.000000,,2013-01-22 07:10:00,
2013-01-22 02:33:00,4.0,-1.0,-100.00,East,94,1.0,2.0,79,0.00,,,0.00,0.000000,,2013-01-22 07:33:00,
2013-01-22 02:43:00,4.0,-1.0,-100.00,East,94,1.0,2.0,79,0.00,,,0.00,0.000000,,2013-01-22 07:43:00,
2013-01-22 02:53:00,4.0,-1.0,-100.00,East,94,1.0,2.0,79,0.00,,,0.00,0.000000,,2013-01-22 07:53:00,
2013-01-22 03:02:00,4.0,-1.0,-100.00,East,94,1.0,2.0,79,0.00,,,0.00,0.000000,,2013-01-22 08:02:00,
2013-01-22 03:10:00,7.0,2.0,-100.00,NNE,19,1.0,3.0,80,0.00,,,0.00,0.000000,,2013-01-22 08:10:00,
2013-01-22 03:33:00,7.0,2.0,-100.00,NNE,19,1.0,3.0,80,0.00,,,0.00,0.000000,,2013-01-22 08:33:00,
2013-01-22 03:43:00,7.0,2.0,-100.00,NNE,19,1.0,3.0,80,0.00,,,0.00,0.000000,,2013-01-22 08:43:00,
2013-01-22 03:53:00,7.0,2.0,-100.00,NNE,19,1.0,3.0,80,0.00,,,0.00,0.000000,,2013-01-22 08:53:00,
2013-01-22 04:02:00,7.0,2.0,-100.00,NNE,19,1.0,3.0,80,0.00,,,0.00,0.000000,,2013-01-22 09:02:00,
2013-01-22 04:10:00,8.0,3.0,-100.00,ENE,72,1.0,3.0,79,0.00,,,0.00,0.000000,,2013-01-22 09:10:00,
2013-01-22 04:33:00,8.0,3.0,-100.00,ENE,72,1.0,3.0,79,0.00,,,0.00,0.000000,,2013-01-22 09:33:00,
2013-01-22 04:43:00,8.0,3.0,-100.00,ENE,72,1.0,3.0,79,0.00,,,0.00,0.000000,,2013-01-22 09:43:00,
2013-01-22 04:53:00,8.0,3.0,-100.00,ENE,72,1.0,3.0,79,0.00,,,0.00,0.000000,,2013-01-22 09:53:00,
2013-01-22 05:03:00,8.0,3.0,-100.00,ENE,72,1.0,3.0,79,0.00,,,0.00,0.000000,,2013-01-22 10:03:00,
2013-01-22 05:10:00,8.0,3.0,-100.00,SSE,155,1.0,2.0,80,0.00,,,0.00,0.000000,,2013-01-22 10:10:00,
2013-01-22 05:33:00,8.0,3.0,-100.00,SSE,155,1.0,2.0,80,0.00,,,0.00,0.000000,,2013-01-22 10:33:00,
2013-01-22 05:43:00,8.0,3.0,-100.00,SSE,155,1.0,2.0,80,0.00,,,0.00,0.000000,,2013-01-22 10:43:00,
2013-01-22 05:53:00,8.0,3.0,-100.00,SSE,155,1.0,2.0,80,0.00,,,0.00,0.000000,,2013-01-22 10:53:00,
2013-01-22 06:02:00,8.0,3.0,-100.00,SSE,155,1.0,2.0,80,0.00,,,0.00,0.000000,,2013-01-22 11:02:00,
2013-01-22 06:10:00,7.0,2.0,-100.00,NE,35,0.0,2.0,79,0.00,,,0.00,0.000000,,2013-01-22 11:10:00,
2013-01-22 06:33:00,7.0,2.0,-100.00,NE,35,0.0,2.0,79,0.00,,,0.00,0.000000,,2013-01-22 11:33:00,
2013-01-22 06:43:00,7.0,2.0,-100.00,NE,35,0.0,2.0,79,0.00,,,0.00,0.000000,,2013-01-22 11:43:00,
2013-01-22 06:53:00,7.0,2.0,-100.00,NE,35,0.0,2.0,79,0.00,,,0.00,0.000000,,2013-01-22 11:53:00,
2013-01-22 07:04:00,7.0,2.0,-100.00,NE,35,0.0,2.0,79,0.00,,,0.00,0.000000,,2013-01-22 12:04:00,
2013-01-22 07:10:00,7.0,2.0,-100.00,ENE,71,0.0,2.0,80,0.00,,,0.00,0.000000,,2013-01-22 12:10:00,
2013-01-22 07:33:00,7.0,2.0,-100.00,ENE,71,0.0,2.0,80,0.00,,,0.00,0.000000,,2013-01-22 12:33:00,
2013-01-22 07:43:00,7.0,2.0,-100.00,ENE,71,0.0,2.0,80,0.00,,,0.00,0.000000,,2013-01-22 12:43:00,
2013-01-22 07:53:00,7.0,2.0,-100.00,ENE,71,0.0,2.0,80,0.00,,,0.00,0.000000,,2013-01-22 12:53:00,
2013-01-22 08:04:00,7.0,2.0,-100.00,ENE,71,0.0,2.0,80,0.00,,,0.00,0.000000,,2013-01-22 13:04:00,
2013-01-22 08:10:00,8.0,3.0,-100.00,ENE,57,1.0,2.0,79,0.00,,,0.00,4.000000,,2013-01-22 13:10:00,
2013-01-22 08:34:00,8.0,3.0,-100.00,ENE,57,1.0,2.0,79,0.00,,,0.00,4.000000,,2013-01-22 13:34:00,
2013-01-22 08:43:00,8.0,3.0,-100.00,ENE,57,1.0,2.0,79,0.00,,,0.00,4.000000,,2013-01-22 13:43:00,
2013-01-22 08:54:00,8.0,3.0,-100.00,ENE,57,1.0,2.0,79,0.00,,,0.00,4.000000,,2013-01-22 13:54:00,
2013-01-22 09:03:00,8.0,3.0,-100.00,ENE,57,1.0,2.0,79,0.00,,,0.00,4.000000,,2013-01-22 14:03:00,
2013-01-22 09:10:00,10.0,4.0,-100.00,SSW,208,1.0,3.0,77,0.00,,,0.00,19.000000,,2013-01-22 14:10:00,
2013-01-22 09:34:00,10.0,4.0,-100.00,SSW,208,1.0,3.0,77,0.00,,,0.00,19.000000,,2013-01-22 14:34:00,
2013-01-22 09:44:00,10.0,4.0,-100.00,SSW,208,1.0,3.0,77,0.00,,,0.00,19.000000,,2013-01-22 14:44:00,
2013-01-22 09:54:00,10.0,4.0,-100.00,SSW,208,1.0,3.0,77,0.00,,,0.00,19.000000,,2013-01-22 14:54:00,
2013-01-22 10:04:00,10.0,4.0,-100.00,SSW,208,1.0,3.0,77,0.00,,,0.00,19.000000,,2013-01-22 15:04:00,
2013-01-22 10:10:00,14.0,7.0,-100.00,East,83,3.0,6.0,72,0.00,,,0.00,36.000000,,2013-01-22 15:10:00,
2013-01-22 10:44:00,14.0,7.0,-100.00,East,83,3.0,6.0,72,0.00,,,0.00,36.000000,,2013-01-22 15:44:00,
2013-01-22 10:54:00,14.0,7.0,-100.00,East,83,3.0,6.0,72,0.00,,,0.00,36.000000,,2013-01-22 15:54:00,
2013-01-22 11:04:00,14.0,7.0,-100.00,East,83,3.0,6.0,72,0.00,,,0.00,36.000000,,2013-01-22 16:04:00,
2013-01-22 11:10:00,15.0,4.0,-100.00,West,270,7.0,13.0,61,0.00,,,0.00,46.000000,,2013-01-22 16:10:00,
2013-01-22 11:43:00,15.0,4.0,-100.00,West,270,7.0,13.0,61,0.00,,,0.00,46.000000,,2013-01-22 16:43:00,
2013-01-22 11:54:00,15.0,4.0,-100.00,West,270,7.0,13.0,61,0.00,,,0.00,46.000000,,2013-01-22 16:54:00,
2013-01-22 12:04:00,15.0,4.0,-100.00,West,270,7.0,13.0,61,0.00,,,0.00,46.000000,,2013-01-22 17:04:00,
2013-01-22 12:10:00,15.0,1.0,-100.00,West,264,5.0,12.0,53,0.00,,,0.00,52.000000,,2013-01-22 17:10:00,
2013-01-22 12:35:00,15.0,1.0,-100.00,West,264,5.0,12.0,53,0.00,,,0.00,52.000000,,2013-01-22 17:35:00,
2013-01-22 12:44:00,15.0,1.0,-100.00,West,264,5.0,12.0,53,0.00,,,0.00,52.000000,,2013-01-22 17:44:00,
2013-01-22 12:54:00,15.0,1.0,-100.00,West,264,5.0,12.0,53,0.00,,,0.00,52.000000,,2013-01-22 17:54:00,
2013-01-22 13:04:00,15.0,1.0,-100.00,West,264,5.0,12.0,53,0.00,,,0.00,52.000000,,2013-01-22 18:04:00,
2013-01-22 13:10:00,15.0,1.0,-100.00,West,266,5.0,11.0,53,0.00,,,0.00,69.000000,,2013-01-22 18:10:00,
2013-01-22 13:34:00,15.0,1.0,-100.00,West,266,5.0,11.0,53,0.00,,,0.00,69.000000,,2013-01-22 18:34:00,
2013-01-22 13:44:00,15.0,1.0,-100.00,West,266,5.0,11.0,53,0.00,,,0.00,69.000000,,2013-01-22 18:44:00,
2013-01-22 13:54:00,15.0,1.0,-100.00,West,266,5.0,11.0,53,0.00,,,0.00,69.000000,,2013-01-22 18:54:00,
2013-01-22 14:04:00,15.0,1.0,-100.00,West,266,5.0,11.0,53,0.00,,,0.00,69.000000,,2013-01-22 19:04:00,
2013-01-22 14:10:00,16.0,2.0,-100.00,West,281,5.0,12.0,54,0.00,,,0.00,98.000000,,2013-01-22 19:10:00,
2013-01-22 14:34:00,16.0,2.0,-100.00,West,281,5.0,12.0,54,0.00,,,0.00,98.000000,,2013-01-22 19:34:00,
2013-01-22 14:44:00,16.0,2.0,-100.00,West,281,5.0,12.0,54,0.00,,,0.00,98.000000,,2013-01-22 19:44:00,
2013-01-22 14:54:00,16.0,2.0,-100.00,West,281,5.0,12.0,54,0.00,,,0.00,98.000000,,2013-01-22 19:54:00,
2013-01-22 15:03:00,16.0,2.0,-100.00,West,281,5.0,12.0,54,0.00,,,0.00,98.000000,,2013-01-22 20:03:00,
2013-01-22 15:10:00,13.0,1.0,-100.00,West,262,4.0,14.0,57,0.00,,,-99.99,58.000000,,2013-01-22 20:10:00,
2013-01-22 15:34:00,13.0,1.0,-100.00,West,262,4.0,14.0,57,0.00,,,-99.99,58.000000,,2013-01-22 20:34:00,
2013-01-22 15:43:00,13.0,1.0,-100.00,West,262,4.0,14.0,57,0.00,,,-99.99,58.000000,,2013-01-22 20:43:00,
2013-01-22 15:54:00,13.0,1.0,-100.00,West,262,4.0,14.0,57,0.00,,,-99.99,58.000000,,2013-01-22 20:54:00,
2013-01-22 16:04:00,13.0,1.0,-100.00,West,262,4.0,14.0,57,0.00,,,-99.99,58.000000,,2013-01-22 21:04:00,
2013-01-22 16:10:00,10.0,-5.0,-100.00,West,265,4.0,13.0,49,0.00,,,0.00,26.000000,,2013-01-22 21:10:00,
2013-01-22 16:43:00,10.0,-5.0,-100.00,West,265,4.0,13.0,49,0.00,,,0.00,26.000000,,2013-01-22 21:43:00,
2013-01-22 16:53:00,10.0,-5.0,-100.00,West,265,4.0,13.0,49,0.00,,,0.00,26.000000,,2013-01-22 21:53:00,
2013-01-22 17:03:00,10.0,-5.0,-100.00,West,265,4.0,13.0,49,0.00,,,0.00,26.000000,,2013-01-22 22:03:00,
2013-01-22 17:10:00,7.0,-7.0,-100.00,West,267,3.0,11.0,51,0.00,,,0.00,3.000000,,2013-01-22 22:10:00,
2013-01-22 17:43:00,7.0,-7.0,-100.00,West,267,3.0,11.0,51,0.00,,,0.00,3.000000,,2013-01-22 22:43:00,
2013-01-22 17:53:00,7.0,-7.0,-100.00,West,267,3.0,11.0,51,0.00,,,0.00,3.000000,,2013-01-22 22:53:00,
2013-01-22 18:03:00,7.0,-7.0,-100.00,West,267,3.0,11.0,51,0.00,,,0.00,3.000000,,2013-01-22 23:03:00,
2013-01-22 18:10:00,6.0,-7.0,-100.00,WNW,293,3.0,9.0,53,0.00,,,0.00,0.000000,,2013-01-22 23:10:00,
2013-01-22 18:34:00,6.0,-7.0,-100.00,WNW,293,3.0,9.0,53,0.00,,,0.00,0.000000,,2013-01-22 23:34:00,
2013-01-22 18:43:00,6.0,-7.0,-100.00,WNW,293,3.0,9.0,53,0.00,,,0.00,0.000000,,2013-01-22 23:43:00,
2013-01-22 18:53:00,6.0,-7.0,-100.00,WNW,293,3.0,9.0,53,0.00,,,0.00,0.000000,,2013-01-22 23:53:00,
2013-01-22 19:03:00,6.0,-7.0,-100.00,WNW,293,3.0,9.0,53,0.00,,,0.00,0.000000,,2013-01-23 00:03:00,
2013-01-22 19:10:00,5.0,-14.0,-100.00,West,266,2.0,10.0,39,0.00,,,0.00,0.000000,,2013-01-23 00:10:00,
2013-01-22 19:43:00,5.0,-14.0,-100.00,West,266,2.0,10.0,39,0.00,,,0.00,0.000000,,2013-01-23 00:43:00,
2013-01-22 19:53:00,5.0,-14.0,-100.00,West,266,2.0,10.0,39,0.00,,,0.00,0.000000,,2013-01-23 00:53:00,
2013-01-22 20:03:00,5.0,-14.0,-100.00,West,266,2.0,10.0,39,0.00,,,0.00,0.000000,,2013-01-23 01:03:00,
2013-01-22 20:10:00,4.0,-12.0,-100.00,West,264,7.0,14.0,46,0.00,,,-99.99,0.000000,,2013-01-23 01:10:00,
2013-01-22 20:33:00,4.0,-12.0,-100.00,West,264,7.0,14.0,46,0.00,,,-99.99,0.000000,,2013-01-23 01:33:00,
2013-01-22 20:43:00,4.0,-12.0,-100.00,West,264,7.0,14.0,46,0.00,,,-99.99,0.000000,,2013-01-23 01:43:00,
2013-01-22 20:53:00,4.0,-12.0,-100.00,West,264,7.0,14.0,46,0.00,,,-99.99,0.000000,,2013-01-23 01:53:00,
2013-01-22 21:03:00,4.0,-12.0,-100.00,West,264,7.0,14.0,46,0.00,,,-99.99,0.000000,,2013-01-23 02:03:00,
2013-01-22 21:10:00,1.0,-16.0,-100.00,WSW,258,2.0,15.0,43,0.00,,,0.00,0.000000,,2013-01-23 02:10:00,
2013-01-22 21:43:00,1.0,-16.0,-100.00,WSW,258,2.0,15.0,43,0.00,,,0.00,0.000000,,2013-01-23 02:43:00,
2013-01-22 21:54:00,1.0,-16.0,-100.00,WSW,258,2.0,15.0,43,0.00,,,0.00,0.000000,,2013-01-23 02:54:00,
2013-01-22 22:03:00,1.0,-16.0,-100.00,WSW,258,2.0,15.0,43,0.00,,,0.00,0.000000,,2013-01-23 03:03:00,
2013-01-22 22:10:00,-1.0,-19.0,-100.00,NW,308,2.0,10.0,40,0.00,,,0.00,0.000000,,2013-01-23 03:10:00,
2013-01-22 22:33:00,-1.0,-19.0,-100.00,NW,308,2.0,10.0,40,0.00,,,0.00,0.000000,,2013-01-23 03:33:00,
2013-01-22 22:43:00,-1.0,-19.0,-100.00,NW,308,2.0,10.0,40,0.00,,,0.00,0.000000,,2013-01-23 03:43:00,
2013-01-22 22:53:00,-1.0,-19.0,-100.00,NW,308,2.0,10.0,40,0.00,,,0.00,0.000000,,2013-01-23 03:53:00,
2013-01-22 23:03:00,-1.0,-19.0,-100.00,NW,308,2.0,10.0,40,0.00,,,0.00,0.000000,,2013-01-23 04:03:00,
2013-01-22 23:10:00,-1.0,-18.0,-100.00,WNW,286,3.0,8.0,43,0.00,,,0.00,0.000000,,2013-01-23 04:10:00,
2013-01-22 23:33:00,-1.0,-18.0,-100.00,WNW,286,3.0,8.0,43,0.00,,,0.00,0.000000,,2013-01-23 04:33:00,
2013-01-22 23:43:00,-1.0,-18.0,-100.00,WNW,286,3.0,8.0,43,0.00,,,0.00,0.000000,,2013-01-23 04:43:00,
2013-01-22 23:53:00,-1.0,-18.0,-100.00,WNW,286,3.0,8.0,43,0.00,,,0.00,0.000000,,2013-01-23 04:53:00,